Header for Extended Forecast Station List Page

Search by: ID | Name | Date | Parm | Value | Avg | % Avg
Sort by: ID | Name | Date | Parm | Value | Avg | % Avg

Enter search or view all records.

Click on id for station plot
#IDNameDateParmValueAvg% Avg
0ABOM8CLARK FORK-ABOVE MISSOULA07-06-2020DISCHARGE (KAF)583457127
1AFRI1SNAKE-AMERICAN FALLS RESERVOIR07-06-2020INFLOW (KAF)13221209109
2ALFW1PEND OREILLE-ALBENI FALLS DAM07-06-2020INFLOW (KAF)40383900104
3ALPW4SNAKE-NEAR ALPINE07-06-2020DISCHARGE (KAF)1047116790
4ANAW1SNAKE-NEAR ANATONE07-06-2020DISCHARGE (KAF)61534972124
5ANTI1HENRYS FORK-AT ST. ANTHONY07-06-2020DISCHARGE (KAF)328314105
6ARAI1SF BOISE-ANDERSON RANCH DAM07-06-2020INFLOW (KAF)539258
7ARDW1ENTIAT-NEAR ARDENVOIR07-06-2020DISCHARGE (KAF)315162
8BELM8CLARK FORK-BELOW MISSOULA07-06-2020DISCHARGE (KAF)884767115
9BERO3MALHEUR-AGENCY VALLEY DAM07-06-2020INFLOW (KAF)87122
10BFEI1KOOTENAI-AT BONNERS FERRY07-06-2020STAGE (FT)MMM
11BFTI1SNAKE-NEAR BLACKFOOT07-06-2020DISCHARGE (KAF)738555133
12BIGI1BOISE-AT GLENWOOD BRIDGE07-06-2020DISCHARGE (KAF)12818271
13BITM8BITTERROOT-NEAR MISSOULA07-06-2020DISCHARGE (KAF)302299101
14BONM8BLACKFOOT-NEAR BONNER07-06-2020DISCHARGE (KAF)240224107
15BONO3COLUMBIA-BONNEVILLE DAM07-06-2020INFLOW (KAF)3607833711107
16BRNI1SNAKE-BROWNLEE DAM07-06-2020INFLOW (KAF)38883006129
17BUDW1BUMPING-BUMPING LAKE DAM07-06-2020INFLOW (KAF)182767
18BULO3BULLY CREEK-BULLY CREEK DAM07-06-2020INFLOW (KAF)M0M
19CABI1CLARK FORK-CABINET GORGE DAM07-06-2020INFLOW (KAF)39753640109
20CFMM8FLATHEAD-AT COLUMBIA FALLS07-06-2020DISCHARGE (KAF)15171496101
21CHDW1CHELAN-LAKE CHELAN DAM07-06-2020INFLOW (KAF)18934355
22CHEI1FALL RIVER-NEAR CHESTER07-06-2020DISCHARGE (KAF)7877101
23CHJW1COLUMBIA-CHIEF JOSEPH DAM07-06-2020INFLOW (KAF)2408722402108
24CIBW1COLUMBIA-AT INTL BOUNDARY07-06-2020DISCHARGE (KAF)24312MM
25CLFW1NACHES-NEAR CLIFFDEL07-06-2020DISCHARGE (KAF)8110081
26CLUW1CLE ELUM-CLE ELUM LAKE07-06-2020INFLOW (KAF)519355
27COEI1COEUR D ALENE-COEUR D ALENE LAKE07-06-2020INFLOW (KAF)253247103
28CSDI1NF PAYETTE-CASCADE DAM07-06-2020INFLOW (KAF)7668112
29DEDI1DEADWOOD-NEAR LOWMAN07-06-2020INFLOW (KAF)162662
30DLGM8CLARK FORK-AT DEER LODGE07-06-2020DISCHARGE (KAF)8743203
31DRMM8CLARK FORK-NR DRUMMOND07-06-2020DISCHARGE (KAF)204MM
32DWRI1NF CLEARWATER-DWORSHAK DAM07-06-2020INFLOW (KAF)33343676
33EASW1YAKIMA-AT EASTON07-06-2020DISCHARGE (KAF)667588
34EMMI1PAYETTE-NEAR EMMETT07-06-2020DISCHARGE (KAF)40543693
35FCFM8NF FLATHEAD-NEAR COLUMBIA FALLS07-06-2020DISCHARGE (KAF)39044188
36GCDW1COLUMBIA-GRAND COULEE DAM07-06-2020INFLOW (KAF)2524024626102
37GIBO3UMATILLA-NEAR GIBBON07-06-2020DISCHARGE (KAF)121299
38HALI1BIG WOOD-AT HAILEY07-06-2020DISCHARGE (KAF)497664
39HEII1SNAKE-NEAR HEISE07-06-2020DISCHARGE (KAF)1879195996
40HHWM8SF FLATHEAD-HUNGRY HORSE DAM07-06-2020INFLOW (KAF)34935499
41HODO3HOOD-NEAR TUCKER BRIDGE07-06-2020DISCHARGE (KAF)819288
42HOPI1PEND OREILLE-PEND OREILLE LAKE NR HOPE07-06-2020LAKE ELEVATION (FT)MMM
43HOTI1BRUNEAU-NEAR HOT SPRINGS07-06-2020DISCHARGE (KAF)2826105
44HWRI1BIG LOST-AT HOWELL RANCH NEAR CHILLY07-06-2020DISCHARGE (KAF)275748
45IHDW1SNAKE-ICE HARBOR DAM07-06-2020INFLOW (KAF)84256283134
46IPDI1HENRYS FORK-ISLAND PARK DAM07-06-2020INFLOW (KAF)13715190
47JDAO3COLUMBIA-JOHN DAY DAM07-06-2020INFLOW (KAF)3530933458106
48JKSW4SNAKE-NEAR JACKSON07-06-2020DISCHARGE (KAF)87296291
49JLKW4SNAKE-JACKSON LAKE AT DAM07-06-2020INFLOW (KAF)18722982
50KADW1KACHESS-KACHESS DAM07-06-2020INFLOW (KAF)141786
51KEDW1YAKIMA-KEECHELUS LAKE07-06-2020INFLOW (KAF)242594
52KERM8FLATHEAD-KERR DAM07-06-2020INFLOW (KAF)1715178796
53KIOW1YAKIMA-AT KIONA07-06-2020DISCHARGE (KAF)38944188
54LAUW1KETTLE-AT LAURIER07-06-2020DISCHARGE (KAF)23323798
55LEOI1KOOTENAI-AT LEONIA07-06-2020DISCHARGE (KAF)2571264597
56LGDW1SNAKE-LOWER GRANITE DAM07-06-2020INFLOW (KAF)84086313133
57LGSW1SNAKE-LITTLE GOOSE DAM07-06-2020INFLOW (KAF)83916338132
58LLKW1SPOKANE-AT LONGLAKE07-06-2020INFLOW (KAF)59461597
59LMNW1SNAKE-LOWER MONUMENTAL DAM07-06-2020INFLOW (KAF)84036371132
60LUCI1BOISE-LUCKY PEAK DAM07-06-2020INFLOW (KAF)446MM
61LWRI1LITTLE WOOD-LITTLE WOOD DAM07-06-2020INFLOW (KAF)61736
62LYDM8KOOTENAI-LIBBY DAM07-06-2020INFLOW (KAF)2323243895
63MACI1BIG LOST-MACKAY RESERVOIR NEAR MACKAY07-06-2020INFLOW (KAF)364483
64MAGI1BIG WOOD-MAGIC DAM07-06-2020INFLOW (KAF)183749
65MCDW1COLUMBIA-MCNARY DAM07-06-2020INFLOW (KAF)3482832945106
66MILI1SNAKE-AT MILNER07-06-2020DISCHARGE (KAF)1037112929
67MODO3DESCHUTES-AT MOODY NR BIGGS07-06-2020DISCHARGE (KAF)1044109495
68MONO3NF JOHN DAY-AT MONUMENT07-06-2020DISCHARGE (KAF)4643106
69MYKO3MCKAY CREEK-NEAR PILOT ROCK07-06-2020DISCHARGE (KAF)0098
70NACW1NACHES-NEAR NACHES07-06-2020DISCHARGE (KAF)11615475
71NOXM8CLARK FORK-NOXON RAPIDS DAM07-06-2020INFLOW (KAF)35993395106
72ORFI1CLEARWATER-AT OROFINO07-06-2020DISCHARGE (KAF)60767490
73OWYO3OWYHEE-OWYHEE DAM07-06-2020INFLOW (KAF)5751111
74PARI1BOISE-NEAR PARMA07-06-2020DISCHARGE (KAF)17322278
75PARW1YAKIMA-NEAR PARKER07-06-2020DISCHARGE (KAF)9413072
76PATW1METHOW-NEAR PATEROS07-06-2020DISCHARGE (KAF)14519375
77PDTO3UMATILLA-AT PENDLETON07-06-2020DISCHARGE (KAF)121297
78PESW1WENATCHEE-AT PESHASTIN07-06-2020DISCHARGE (KAF)26540166
79PIHI1PORTNEUF-AT POCATELLO07-06-2020DISCHARGE (KAF)232591
80PITW1KLICKITAT-NEAR PITT07-06-2020DISCHARGE (KAF)17420385
81PLDI1SF SNAKE-PALISADES DAM07-06-2020INFLOW (KAF)1446158091
82PRTI1PRIEST-NEAR PRIEST RIVER07-06-2020DISCHARGE (KAF)203164124
83PRWW1COLUMBIA-PRIEST RAPIDS DAM07-06-2020INFLOW (KAF)2584125631101
84RCCM8ROCK CREEK-NEAR CLINTON07-06-2020DISCHARGE (KAF)11085129
85REXI1HENRYS FORK-AT REXBURG07-06-2020DISCHARGE (KAF)400362110
86RIDI1WILLOW CREEK-RIRIE DAM07-06-2020INFLOW (KAF)85149
87RILW1TIETON-RIMROCK LAKE NEAR RIMROCK07-06-2020INFLOW (KAF)747994
88RRHW1COLUMBIA-ROCKY REACH DAM07-06-2020INFLOW (KAF)2546523521108
89SATI1ST MARIES-NEAR SANTA07-06-2020DISCHARGE (KAF)171989
90SERO3JOHN DAY-AT SERVICE CK07-06-2020DISCHARGE (KAF)6867102
91SHYI1SNAKE-NEAR SHELLEY07-06-2020DISCHARGE (KAF)11851022116
92SIFI1SNAKE-AB EAGLE ROCK NR IDAHO FALLS07-06-2020DISCHARGE (KAF)13221316100
93SJMI1ST JOE-AT ST MARIES07-06-2020STAGE (FT)MMM
94SNAI1SNAKE-AT BLACKFOOT07-06-2020DISCHARGE (KAF)743590126
95SPDI1CLEARWATER-AT SPALDING07-06-2020DISCHARGE (KAF)22561268178
96SPOW1SPOKANE-AT SPOKANE07-06-2020DISCHARGE (KAF)413MM
97SRGM8CLARK FORK-AT ST REGIS07-06-2020DISCHARGE (KAF)10771004107
98STRM8ST. REGIS-NEAR ST. REGIS07-06-2020DISCHARGE (KAF)373799
99SWAI1SNAKE-BELOW SWAN FALLS07-06-2020DISCHARGE (KAF)26812004134
100TCHW1WALLA WALLA-NEAR TOUCHET07-06-2020DISCHARGE (KAF)108116
101TDAO3COLUMBIA-THE DALLES DAM07-06-2020INFLOW (KAF)3569732689109
102TEAI1TETON-NEAR ST. ANTHONY07-06-2020DISCHARGE (KAF)197188105
103TNAW1TEANAWAY-BELOW FORKS07-06-2020DISCHARGE (KAF)7979
104TONW1OKANOGAN-NEAR TONASKET07-06-2020DISCHARGE (KAF)453393115
105TRYO3GRANDE RONDE-TROY07-06-2020DISCHARGE (KAF)316241131
106UMAO3UMATILLA-NEAR UMATILLA07-06-2020DISCHARGE (KAF)347463
107UMTW1YAKIMA-AT UMTANUM07-06-2020DISCHARGE (KAF)59161097
108UNDW1WHITE SALMON-NEAR UNDERWOOD07-06-2020DISCHARGE (KAF)14316587
109WANW1COLUMBIA-WANAPUM DAM07-06-2020INFLOW (KAF)2584225161103
110WEII1SNAKE-AT WEISER07-06-2020DISCHARGE (KAF)37492955127
111WELW1COLUMBIA-WELLS DAM07-06-2020INFLOW (KAF)2471622970108
112WGCM8MF FLATHEAD-NEAR WEST GLACIER07-06-2020DISCHARGE (KAF)438384114
113WHBI1SALMON-AT WHITEBIRD07-06-2020DISCHARGE (KAF)15841559102
114WRMO3MALHEUR-WARM SPRINGS DAM07-06-2020INFLOW (KAF)43151
115WSRI1WEISER-NEAR WEISER07-06-2020DISCHARGE (KAF)545696